Location: Artiguedieu
(43.5000°N, 0.5454°E)
Time: 13:07:11
(UTC+00:00)

USA 307 - Pass Details

Date: 06 December 2020
Orbit: 565 x 582 km, 54.0° (Epoch: 25 January)

Event Time Altitude Azimuth Distance (km) Brightness Sun altitude
Exits shadow 05:23:49 44° 320° (NW) 809 3.3 -19.7°
Maximum altitude 05:25:07 76° 36° (NE) 603 2.9 -19.5°
Drops below altitude 10° 05:29:26 10° 122° (ESE) 1,894 6.6 -18.7°
Sets 05:31:42 0° 124° (SE) 2,791 7.7 -18.3°
